FENGYUN 1C DEB

Satellite information

Favourite Embed

Satellite Type and Status

DEBRISIN ORBIT

Key statistics

Satellite FENGYUN 1C DEB at a glance.

Uptime

9668

Days in orbit

Revolutions

≈ 14.6

Per day

Orbit

SSO

Sun Synchronous Orbit

Inclination

98.9

Latest

Satellite identification and parameters

Extended collection of information and parameters for FENGYUN 1C DEB.

Object identification

Identified? True

Debris? True

Object name: FENGYUN 1C DEB

International designator: 1999-025BZE

Object number (NORAD): 31563

Object ID (CCSDS): 31563

Country: PEOPLES REPUBLIC OF CHINA (PRC)

Current information (Y/N): Y

RCS size: SMALL

Orbital parameters

Period: 98.319 minutes

Inclination: 98.9496 deg

SMA: 7056.415 km

Apoapsis: 759.11 km

Periapsis: 597.45 km

RAAN: 89.533 deg

Eccentricy: 0.01145486

Argument of periapsis: 221.9215 deg

Mean anomaly: 137.3173 deg

Mean motion: 14.64625555 rev/day

Mean motion (dot): 0.00006701 rev/day2

B* drag term: 0.0011553997 1/REarth

Two-line elements (TLE)

Creation date: Oct. 27, 2025, 10:32 a.m.

Reference frame: TEME

Reference center: EARTH

Epoch: Oct. 27, 2025, 3:23 a.m. UTC

TLE line 0: 0 FENGYUN 1C DEB

TLE line 1: 1 31563U 99025BZE 25300.14111519 .00006701 00000-0 11554-2 0 9998

TLE line 2: 2 31563 98.9496 89.5330 0114549 221.9215 137.3173 14.64625555978629

Live tracking on map

Real-time ground track for satellite FENGYUN 1C DEB.

In-orbit conjunctions

A list of the most updated potential collisions computed for object FENGYUN 1C DEB.

Target Orbit TCA Probability of collision Miss distance Type
COSMOS 1275 DEB LEO 2025-07-29 19:32:13 0.0007985229 67.0 (m) DEBRIS
SL-24 R/B SSO 2025-02-09 04:46:06 0.0003114876 97.0 (m) ROCKET BODY

Associated space launch

Chinese polar orbiting meteorological satellite

FENGYUN 1C DEB was lifted into orbit during the mission ‘Long March 4B | Feng Yun 1C’, on board a Long March 4B space rocket.

The launch took place on May 10, 1999, 1:33 a.m. from Launch Complex 7.

For more information about the launch, click the button.

Launch to space Long March 4B | Feng Yun 1C
Long March 4B | Feng Yun 1C

Agency: N/A

Status: Launch Successful

Launch date: May 10, 1999, 1:33 a.m. UTC

Rocket: Long March 4B

Launch pad: Launch Complex 7

Location: Taiyuan Satellite Launch Center, People's Republic of China

...

Latest news about this satellite

There are no fresh news available about this satellite. Check back as we update our databases every day.


Newsletter sign-up

Weekly statistics, charts and insights to help you stay on top of the space industry.